This is the latest recevied weather packets stored in our database for station/object WA9AFM. If no packets are shown the sender has not sent any weather packets the latest 10 day(s).
| Time | Temp. | Humidity | Pressure | Rain* | Wind** | Luminosity | Snow |
|---|---|---|---|---|---|---|---|
| 1787405187 | 25° C | 66% | 1012 hPa | 0 mm | - | - | - |
| 1787404288 | 25.56° C | 66% | 1011.9 hPa | 0 mm | - | - | - |
| 1787403387 | 26.11° C | 65% | 1012.3 hPa | 0 mm | - | - | - |
| 1787402488 | 26.67° C | 61% | 1012.3 hPa | 0 mm | - | - | - |
| 1787401588 | 26.67° C | 58% | 1012.5 hPa | 0 mm | - | - | - |
| 1787400689 | 27.22° C | 59% | 1011.4 hPa | 0 mm | - | - | - |
| 1787399787 | 26.67° C | 59% | 1009.9 hPa | 0 mm | - | - | - |
| 1787398888 | 27.22° C | 56% | 1009.8 hPa | 0 mm | - | - | - |
| 1787397988 | 27.78° C | 56% | 1009.3 hPa | 0 mm | - | - | - |
| 1787397087 | 27.22° C | 61% | 1009.1 hPa | 0 mm | - | - | - |
| 1787396188 | 27.78° C | 65% | 1009.4 hPa | 0 mm | - | - | - |
| 1787395288 | 28.33° C | 62% | 1009.7 hPa | 0 mm | - | - | - |
| 1787394389 | 27.78° C | 61% | 1009.8 hPa | 0 mm | - | - | - |
| 1787393488 | 27.22° C | 64% | 1009.8 hPa | 0 mm | - | - | - |
| 1787392587 | 26.67° C | 66% | 1010.1 hPa | 0 mm | - | - | - |
| 1787391687 | 26.67° C | 65% | 1009.7 hPa | 0 mm | - | - | - |
| 1787390789 | 26.11° C | 68% | 1009.3 hPa | 0 mm | - | - | - |
| 1787389888 | 25.56° C | 68% | 1009.3 hPa | 0 mm | - | - | - |
| 1787388988 | 25.56° C | 68% | 1009.3 hPa | 0 mm | - | - | - |
| 1787388089 | 26.11° C | 68% | 1009.2 hPa | 0 mm | - | - | - |
| 1787387188 | 26.11° C | 67% | 1009.6 hPa | 0 mm | - | - | - |
| 1787386287 | 26.11° C | 68% | 1009.8 hPa | 0 mm | - | - | - |
| 1787385389 | 26.11° C | 67% | 1009.8 hPa | 0 mm | - | - | - |
| 1787384488 | 26.67° C | 67% | 1009.9 hPa | 0 mm | - | - | - |
| 1787383589 | 26.67° C | 66% | 1009.9 hPa | 0 mm | - | - | - |
* Rain latest hour (hover to see other rain measurements)
** Current wind speed in m/s (hover to see current wind gust speed)